Juneau, AK

6:15 PM AKDT on April 25, 2018 (GMT -0800)
Juneau International

Weather History for PAJN - January, 2013

Change the Weather History Date:

Tuesday, January 8, 2013

  Actual Average Record
Temperature  
Mean Temperature 32 °F 28 °F  
Max Temperature 35 °F 33 °F 50 °F (1943)
Min Temperature 28 °F 24 °F -12 °F (1950)
Degree Days  
Heating Degree Days 33 37  
Month to date heating degree days 248 296  
Moisture  
Dew Point 31 °F    
Average Humidity 96    
Maximum Humidity 100    
Minimum Humidity 92    
Precipitation  
Precipitation 0.10 in 0.17 in 0.62 in (2009)
Month to date precipitation 0.95 1.40  
Year to date precipitation 0.95 1.40  
Snow  
Snow T in 0.80 in 12.40 in (2009)
Month to date snowfall 3.6 6.0  
Since 1 July snowfall 47.3 35.5  
Snow Depth T in    
Sea Level Pressure  
Sea Level Pressure 29.69 in    
Wind  
Wind Speed 7 mph (ENE)    
Max Wind Speed 16 mph    
Max Gust Speed 21 mph    
Visibility 8 miles    
Events Fog , Rain , Snow    
T = Trace of Precipitation, MM = Missing Value Source: NWS Daily Summary

Daily Weather History Graph

Daily Weather History Graph

Search for Another Location

Airport or City:

Astronomy

Jan. 08, 2013 Rise Set
Actual Time 8:41 AM AKST 3:29 PM AKST
Civil Twilight 7:50 AM AKST 4:19 PM AKST
Nautical Twilight 6:58 AM AKST 5:11 PM AKST
Astronomical Twilight 6:10 AM AKST 6:00 PM AKST
Moon 5:19 AM AKST (1/8) 12:40 PM AKST (1/8)
Length of Visible Light 8h 29m
Length of Day
6h 47m
Waning Crescent, 12% of the Moon is Illuminated
Jan 8
Waning Crescent
Jan 11
New
Jan 18
First Quarter
Jan 26
Full
Feb 3
Last Quarter

Hourly Weather History & Observations

Time (AKST) Temp. Windchill Dew Point Humidity Pressure Visibility Wind Dir Wind Speed Gust Speed Precip Events Conditions
12:53 AM 34.0 °F 28.8 °F 32.0 °F 92% 29.68 in 10.0 mi ENE 5.8 mph - 0.00 in Rain Light Rain
1:53 AM 35.1 °F 28.6 °F 32.0 °F 89% 29.68 in 10.0 mi East 8.1 mph - 0.00 in   Overcast
2:53 AM 35.1 °F 31.0 °F 33.1 °F 92% 29.70 in 7.0 mi East 4.6 mph - 0.02 in Rain , Snow Light Rain
3:19 AM 34.0 °F 25.5 °F 32.0 °F 92% 29.69 in 3.0 mi East 11.5 mph - 0.03 in Snow Light Snow
3:53 AM 34.0 °F 26.0 °F 32.0 °F 92% 29.69 in 10.0 mi East 10.4 mph - 0.03 in   Overcast
4:53 AM 33.1 °F 26.1 °F 32.0 °F 96% 29.69 in 6.0 mi ENE 8.1 mph - 0.01 in Rain Light Rain
5:15 AM 33.1 °F 27.7 °F 32.0 °F 96% 29.69 in 8.0 mi East 5.8 mph - 0.00 in Rain Light Rain
5:53 AM 33.1 °F 24.4 °F 32.0 °F 96% 29.69 in 8.0 mi East 11.5 mph - 0.00 in Snow Light Snow
6:36 AM 33.1 °F 25.5 °F 32.0 °F 96% 29.69 in 6.0 mi ENE 9.2 mph - 0.02 in Snow Light Snow
6:53 AM 34.0 °F 26.0 °F 32.0 °F 92% 29.69 in 10.0 mi East 10.4 mph - 0.02 in Rain Light Rain
7:53 AM 34.0 °F 27.2 °F 32.0 °F 92% 29.70 in 10.0 mi ENE 8.1 mph - 0.00 in Rain Light Rain
8:53 AM 34.0 °F 25.5 °F 32.0 °F 92% 29.70 in 10.0 mi East 11.5 mph - 0.00 in   Overcast
9:53 AM 35.1 °F 28.6 °F 32.0 °F 89% 29.70 in 10.0 mi East 8.1 mph - 0.00 in Rain Light Rain
10:53 AM 34.0 °F 26.0 °F 33.1 °F 96% 29.70 in 10.0 mi East 10.4 mph - 0.01 in Rain Light Rain
11:53 AM 33.1 °F 24.4 °F 32.0 °F 96% 29.70 in 8.0 mi East 11.5 mph - 0.01 in Rain , Snow Light Rain
12:53 PM 34.0 °F 27.2 °F 33.1 °F 96% 29.69 in 10.0 mi ENE 8.1 mph - 0.00 in Rain Light Rain
1:53 PM 35.1 °F 27.4 °F 32.0 °F 89% 29.68 in 10.0 mi East 10.4 mph - 0.00 in Rain Light Rain
2:53 PM 34.0 °F 26.0 °F 33.1 °F 96% 29.68 in 10.0 mi East 10.4 mph - 0.00 in Rain Light Rain
3:53 PM 34.0 °F 26.6 °F 32.0 °F 92% 29.67 in 10.0 mi East 9.2 mph - 0.00 in   Overcast
4:53 PM 34.0 °F 27.2 °F 32.0 °F 92% 29.66 in 10.0 mi ENE 8.1 mph - N/A   Overcast
5:53 PM 33.1 °F 28.7 °F 32.0 °F 96% 29.66 in 10.0 mi East 4.6 mph - N/A   Overcast
6:53 PM 32.0 °F - 32.0 °F 100% 29.67 in 10.0 mi Calm Calm - 0.00 in Snow Light Snow
7:53 PM 30.9 °F - 30.0 °F 96% 29.68 in 10.0 mi Calm Calm - 0.00 in   Mostly Cloudy
8:53 PM 30.0 °F - 30.0 °F 100% 29.69 in 4.0 mi Calm Calm - N/A   Mostly Cloudy
9:09 PM 30.0 °F - 30.0 °F 100% 29.70 in 2.0 mi Calm Calm - N/A   Mostly Cloudy
9:18 PM 30.9 °F - 30.0 °F 96% 29.69 in 0.5 mi Calm Calm - N/A Fog Light Freezing Fog
9:25 PM 30.9 °F - 30.0 °F 96% 29.70 in 0.2 mi Calm Calm - N/A Fog Light Freezing Fog
9:53 PM 30.0 °F - 28.9 °F 96% 29.70 in 3.0 mi Calm Calm - N/A   Mostly Cloudy
10:02 PM 30.0 °F 26.5 °F 28.0 °F 92% 29.70 in 5.0 mi NNW 3.5 mph - N/A   Mostly Cloudy
10:19 PM 30.0 °F - 30.0 °F 100% 29.70 in 10.0 mi Calm Calm - N/A Fog Patches of Fog
10:53 PM 28.9 °F - 27.0 °F 92% 29.72 in 10.0 mi Calm Calm - N/A Fog Patches of Fog
11:06 PM 28.0 °F - 27.0 °F 96% 29.72 in 0.5 mi Calm Calm - N/A Fog Light Freezing Fog
11:17 PM 28.0 °F - 27.0 °F 96% 29.73 in 10.0 mi Calm Calm - N/A Fog Patches of Fog
11:26 PM 28.0 °F 22.8 °F 27.0 °F 96% 29.73 in 10.0 mi West 4.6 mph - N/A Fog Patches of Fog
11:53 PM 28.0 °F - 27.0 °F 96% 29.74 in 10.0 mi Calm Calm - N/A Fog Patches of Fog